Location: Kellogg
(38.0159°N, 90.0546°W)
Time: 08:17:23
(UTC+00:00)

Vanguard 1 Rocket - Pass Details

Date: 13 September 2024
Orbit: 650 x 4218 km, 34.3° (Epoch: 05 October)

Event Time Altitude Azimuth Distance (km) Brightness Sun altitude
Rises 07:44:24 0° 203° (SSW) 4,862 - -41.4°
Reaches altitude 10° 07:47:30 10° 193° (SSW) 4,275 - -41.1°
Exits shadow 07:55:29 32° 152° (SSE) 3,735 10.2 -40.1°
Maximum altitude 07:58:22 34° 133° (SE) 3,923 10.4 -39.7°
Drops below altitude 10° 08:16:07 10° 79° (E) 6,989 12.4 -37.3°
Sets 08:23:05 0° 72° (ENE) 8,320 13.1 -36.3°
